Погода в Шашемене

Эфиопия     7°13′19″N   38°33′48″E
темп.,
°C
ветер,
м/с
пор.,
м/с
влажн.,
%
обл.,
%
осадки,
мм/ч
давл.,
гПа
погр.,
м
8 марта, пн
пн800:00+19с59430 0.0 1016305
03:00+17ссв48460 0.0 1014284
06:00+15с23534 0.0 101678
09:00+20ссз324121 0.0 1016582
12:00+25ссз33294 0.0 10131265
15:00+28с34232 0.0 10092192
18:00+26в352636 0.0 1010216
21:00+19ююв124234 0.0 101428
9 марта, вт
вт900:00+18с23390 0.0 101647
03:00+16в02450 0.0 101447
06:00+15юв12450 0.0 101726
09:00+21зюз12292 0.0 1017575
12:00+27з222334 0.0 10141858
15:00+28ссз232333 0.0 10102842
18:00+26св122791 0.0 101189
21:00+22юв473295 0.0 1016163
10 марта, ср
ср1000:00+19зсз124072 0.0 101625
03:00+16юв125236 0.0 101538
06:00+15ююв11570 0.0 101629
09:00+22всв123815 0.0 1017690
12:00+27с432594 0.0 10132016
15:00+29ссв432097 0.0 10102750
18:00+27всв2327100 0.0 101199
21:00+21ююв344075 0.0 101569
11 марта, чт
чт1100:00+18ююв235255 0.0 101648
03:00+17ююв225928 0.0 101440
06:00+15ю11640 0.0 101529
09:00+22ююв12430 0.0 1016732
12:00+28ссз33270 0.0 10122014
15:00+28ссв452411 0.0 10081895
18:00+27вюв233083 0.0 1010109
21:00+23ююв463785 0.0 1014160
12 марта, пт
пт1200:00+21ю013979 0.0 101541
03:00+18ссв135260 0.0 101460
06:00+16в12606 0.0 101555
09:00+22ююв134340 0.0 1016808
12:00+27ссз442910 0.0 10121961
15:00+29ссв44238 0.0 10082299
18:00+27всв352842 0.0 1010271
21:00+22св243942 0.0 1014114